Weather History for El Paso, TX

Change the Weather History Date:

Thursday, November 14, 2013

  Actual Average Record
Temperature  
Mean Temperature 56 °F 54 °F  
Max Temperature 69 °F 67 °F 81 °F (1973)
Min Temperature 43 °F 41 °F 11 °F (1976)
Degree Days  
Heating Degree Days 9 11  
Month to date heating degree days 102 123  
Since 1 July heating degree days 160 206  
Cooling Degree Days 0 0  
Month to date cooling degree days 0 0  
Year to date cooling degree days 2694 2328  
Growing Degree Days 6 (Base 50)    
Moisture  
Dew Point 40 °F    
Average Humidity 56    
Maximum Humidity 76    
Minimum Humidity 35    
Precipitation  
Precipitation 0.00 in 0.02 in 0.85 in (2004)
Month to date precipitation T 0.23  
Year to date precipitation 9.15 8.67  
Snow  
Snow 0.00 in - - ()
Month to date snowfall 0.0  
Since 1 July snowfall T  
Since 1 September snowfall 0.0  
Snow Depth 0.00 in    
Sea Level Pressure  
Sea Level Pressure 29.94 in    
Wind  
Wind Speed 6 mph (South)    
Max Wind Speed 14 mph    
Max Gust Speed 17 mph    
Visibility 10 miles    
Events      
T = Trace of Precipitation, MM = Missing Value Source: NWS Daily Summary

Daily Weather History Graph

Daily Weather History Graph

Search for Another Location

Airport:

Trip Planner

Search our weather history database for the weather conditions in past years. The results will help you decide how hot, cold, wet, or windy it might be!

Date:

Astronomy

Nov. 14, 2013 Rise Set
Actual Time 6:33 AM MST 5:06 PM MST
Civil Twilight 6:07 AM MST 5:32 PM MST
Nautical Twilight 5:37 AM MST 6:01 PM MST
Astronomical Twilight 5:09 AM MST 6:30 PM MST
Moon 3:21 PM MST (11/14) 3:40 AM MST (11/14)
Length of Visible Light 11h 24m
Length of Day
10h 33m
Waxing Gibbous, 92% of the Moon is Illuminated
Nov 14
Waxing Gibbous
Nov 17
Full
Nov 25
Last Quarter
Dec 2
New
Dec 9
First Quarter

Hourly Weather History & Observations

Time (MST) Temp. Windchill Dew Point Humidity Pressure Visibility Wind Dir Wind Speed Gust Speed Precip Events Conditions
12:51 AM 52.0 °F - 39.0 °F 61% 30.06 in 10.0 mi Calm Calm - N/A   Mostly Cloudy
1:51 AM 48.0 °F - 37.9 °F 68% 30.04 in 10.0 mi Calm Calm - N/A   Scattered Clouds
2:51 AM 51.1 °F - 39.0 °F 63% 30.01 in 10.0 mi Calm Calm - N/A   Mostly Cloudy
3:51 AM 50.0 °F - 39.0 °F 66% 30.00 in 10.0 mi Calm Calm - N/A   Mostly Cloudy
4:51 AM 48.0 °F - 39.0 °F 71% 30.00 in 10.0 mi Calm Calm - N/A   Mostly Cloudy
5:51 AM 44.1 °F - 37.0 °F 76% 30.01 in 10.0 mi Calm Calm - N/A   Mostly Cloudy
6:51 AM 43.0 °F 41.3 °F 36.0 °F 76% 30.03 in 10.0 mi ESE 3.5 mph - N/A   Scattered Clouds
7:51 AM 50.0 °F - 39.9 °F 68% 30.02 in 10.0 mi South 3.5 mph - N/A   Scattered Clouds
8:51 AM 52.0 °F - 39.9 °F 63% 30.03 in 10.0 mi South 5.8 mph - N/A   Partly Cloudy
9:51 AM 59.0 °F - 43.0 °F 55% 30.01 in 10.0 mi SSW 11.5 mph - N/A   Partly Cloudy
10:51 AM 62.1 °F - 44.1 °F 52% 29.98 in 10.0 mi SSW 10.4 mph - N/A   Partly Cloudy
11:51 AM 64.0 °F - 43.0 °F 46% 29.94 in 10.0 mi SSW 9.2 mph - N/A   Partly Cloudy
12:51 PM 66.0 °F - 42.1 °F 42% 29.89 in 10.0 mi West 5.8 mph - N/A   Partly Cloudy
1:51 PM 68.0 °F - 42.1 °F 39% 29.87 in 10.0 mi SW 8.1 mph - N/A   Partly Cloudy
2:51 PM 69.1 °F - 41.0 °F 36% 29.85 in 10.0 mi SW 4.6 mph - N/A   Clear
3:51 PM 68.0 °F - 39.0 °F 35% 29.84 in 10.0 mi WSW 10.4 mph - N/A   Partly Cloudy
4:51 PM 66.9 °F - 39.9 °F 37% 29.84 in 10.0 mi WSW 10.4 mph - N/A   Partly Cloudy
5:51 PM 64.0 °F - 39.9 °F 41% 29.87 in 10.0 mi SSW 6.9 mph - N/A   Clear
6:51 PM 60.1 °F - 39.9 °F 47% 29.88 in 10.0 mi SSE 6.9 mph - N/A   Clear
7:51 PM 57.9 °F - 39.9 °F 51% 29.88 in 10.0 mi SE 8.1 mph - N/A   Clear
8:51 PM 57.0 °F - 41.0 °F 55% 29.88 in 10.0 mi SE 8.1 mph - N/A   Clear
9:51 PM 55.9 °F - 41.0 °F 57% 29.87 in 10.0 mi SSE 8.1 mph - N/A   Clear
10:51 PM 55.0 °F - 39.9 °F 57% 29.85 in 10.0 mi SSE 9.2 mph - N/A   Clear
11:51 PM 55.0 °F - 39.9 °F 57% 29.84 in 10.0 mi SSE 10.4 mph - N/A   Clear